Regional Weather Roundup
Issued by NWS Boston, MA

Home | Current Version | Previous Version | Text Only | Print | Product List | Glossary On
Versions: 1 2 3 4 5 6 7 8 9 10 11 12 13 14 15 16 17 18 19 20 21 22 23 24 25 26 27 28 29 30 31 32 33 34 35 36 37 38 39 40 41 42 43 44 45 46 47 48 49 50
000
ASUS41 KBOX 021810
RWRBOX

REGIONAL WEATHER ROUNDUP
NATIONAL WEATHER SERVICE TAUNTON MA
200 PM EDT WED SEP 02 2015

NOTE:  "FAIR" INDICATES FEW OR NO CLOUDS BELOW 12,000 FEET WITH NO
SIGNIFICANT WEATHER AND/OR OBSTRUCTIONS TO VISIBILITY.  THE FOLLOWING
OBSERVATION LOCATIONS DO NOT REPORT PRESENT WEATHER...PROVINCETOWN...
SMITHFIELD...BLOCK ISLAND...KEENE...AND OXFORD.

MAZALL-021900-
EASTERN MASSACHUSETTS

CITY           SKY/WX    TMP DP  RH WIND       PRES   REMARKS
BOSTON         SUNNY     89  63  41 W12G21    29.91F HX  90
6HR MIN TEMP:  71; 6HR MAX TEMP:  89;

BEVERLY        SUNNY     88  61  40 W13       29.90F
LAWRENCE       SUNNY     89  61  38 SW8       29.92F
BEDFORD        SUNNY     88  61  40 W8        29.90F
BLUE HILL        N/A     87  63  44 SW13G18   29.94F
NORWOOD        SUNNY     87  65  47 S9        29.92F
MARSHFIELD     SUNNY     88  68  51 SW8       29.94F HX  91
PLYMOUTH       SUNNY     86  64  47 SW10G20   29.94F
TAUNTON        SUNNY     86  67  52 S8        29.93F
NEW BEDFORD    SUNNY     83  68  60 S12       29.94F
$$

MAZALL-021900-
CAPE COD AND THE ISLANDS

CITY           SKY/WX    TMP DP  RH WIND       PRES   REMARKS
FALMOUTH       SUNNY     81  64  57 SW13G20   29.96F
HYANNIS        SUNNY     81  62  52 SW16G22   29.95F
CHATHAM        SUNNY     79  69  71 SW9G21    29.97F
PROVINCETOWN     N/A     81  64  57 SW14      29.94F
NANTUCKET        N/A    N/A N/A N/A MISG      29.98F
MARTHAS VNYRD  SUNNY     80  67  64 SW13      29.97F
$$

MAZALL-021900-
CENTRAL AND WESTERN MASSACHUSETTS

CITY           SKY/WX    TMP DP  RH WIND       PRES   REMARKS
WORCESTER      SUNNY     83  58  42 SW13      29.98F
6HR MIN TEMP:  67; 6HR MAX TEMP:  84;

FITCHBURG      SUNNY     90  58  33 VRB6      29.94F
ORANGE         SUNNY     86  63  45 VRB7      29.95F
SPRINGFIELD    SUNNY     88  64  44 W6        29.93F
WESTFIELD      MOSUNNY   87  63  44 W9G17     29.94F
NORTH ADAMS    SUNNY     82  65  56 W6        29.97F
PITTSFIELD     MOSUNNY   81  63  54 W12       29.99F
$$

RIZALL-021900-
RHODE ISLAND

CITY           SKY/WX    TMP DP  RH WIND       PRES   REMARKS
PROVIDENCE     MOSUNNY   87  63  44 W8        29.94F
6HR MIN TEMP:  68; 6HR MAX TEMP:  88;

NEWPORT        SUNNY     80  69  69 VRB7      29.96F
BLOCK ISLAND   SUNNY     79  66  65 SW16      29.98F
SMITHFIELD     SUNNY     84  66  54 S5        29.95F
WESTERLY       SUNNY     82  68  62 S13       29.97F
$$

CTZALL-021900-
CONNECTICUT

CITY           SKY/WX    TMP DP  RH WIND       PRES   REMARKS
BRADLEY INTL   MOSUNNY   89  64  43 NW9       29.93F HX  90
6HR MIN TEMP:  65; 6HR MAX TEMP:  89;

HARTFORD       SUNNY     90  62  39 N6        29.93F HX  90
BRIDGEPORT     SUNNY     86  68  54 SW13      29.95F
DANBURY        SUNNY     86  61  42 W6        29.98F
GROTON         SUNNY     79  70  74 S9        29.95F
NEW HAVEN      MOSUNNY   83  69  62 S9        29.96F
CHESTER        NOT AVBL
MERIDEN        SUNNY     90  60  36 W9        29.94F
WILLIMANTIC    SUNNY     88  63  43 W8        29.94F
OXFORD         MOSUNNY   84  63  48 VRB6      30.01F
$$

MEZ002-015-021-024-NHZ003-005-008-011-012-014-VTZ005-008-021900-
NORTHERN NEW ENGLAND

CITY           SKY/WX    TMP DP  RH WIND       PRES   REMARKS
PORTLAND ME    SUNNY     83  66  56 VRB3      29.91F
6HR MIN TEMP:  63; 6HR MAX TEMP:  84;

BANGOR ME      MOSUNNY   84  66  54 VRB5      29.89F
CONCORD NH     SUNNY     88  63  43 VRB3      29.93F
MANCHESTER NH  SUNNY     88  55  32 VRB6      29.90F
NASHUA NH      SUNNY     90  61  37 W9        29.92F HX  90
PORTSMOUTH NH  SUNNY     88  62  42 W8        29.90F
JAFFREY NH     SUNNY     83  61  47 SW9       29.98F
KEENE NH       SUNNY     82  63  51 S3        29.96S
BURLINGTON VT  PTSUNNY   87  65  47 VRB6      29.95F
MT. WASHINGTON NOT AVBL
$$

NYZ052-076-021900-
EASTERN NEW YORK

CITY           SKY/WX    TMP DP  RH WIND       PRES   REMARKS
ALBANY         MOSUNNY   86  65  49 VRB3      29.96F
6HR MIN TEMP:  67; 6HR MAX TEMP:  86;

NEW YORK CITY  MOSUNNY   86  67  52 S9        29.95F
6HR MIN TEMP:  77; 6HR MAX TEMP:  87;

$$

ANZALL-021900-
MARINE OBSERVATIONS

STATION/POSITION TIME  TEMP    WIND        PRES    VSBY  WAVE
                       AIR SEA DIR/SP/G                  HT/PER
                 (UTC) (F)     (DEG/KT/KT) (MB)    (MI)  (FT/S)
BOSTON BUOY      1750   74 73  150/  6/  8 1013.3F         1/ 5
BUZZARDS BAY     1700          210/ 14/ 15 1016.0F
NANTUCKET SOUND  1750   73 75  230/ 14/ 16 1014.5F         1
MASS BAY-STELLWA 1704   73 69  180/  8/ 10   N/A    1 7/8  1/ 4
ISLE OF SHOALS   1800   75     150/ 10/ 10 1012.5F
S OF BLOCK IS    1708      75                N/A           2/ 7
$$

......................KEY.........................
  SKY/WX - SKY CONDITION/PRESENT WEATHER
  TMP    - TEMPERATURE IN FAHRENHEIT
  DWPT   - DEWPOINT IN FAHRENHEIT
  RH     - RELATIVE HUMIDITY IN PERCENT
  WIND   - DIRECTION AND SPEED IN MPH
  PRES   - MEAN SEA LEVEL PRESSURE IN INCHES OF HG
  WCI    - WIND CHILL INDEX
  VSB    - VISIBILITY IN MILES
  HX     - HEAT INDEX
  TC     - TEMPERATURE IN CELSIUS
  VRB    - VARIABLE WIND DIRECTION
  N/A    - NOT AVAILABLE



USA.gov is the U.S. government's official web portal to all federal, state and local government web resources and services.